Location: El Águila
(10.4167°N, 66.7167°W)
Time: 06:38:48
(UTC+00:00)

Cosmos 468 Rocket - Pass Details

Date: 02 October 2022
Orbit: 743 x 780 km, 74.0° (Epoch: 26 November)

Event Time Altitude Azimuth Distance (km) Brightness Sun altitude
Rises 22:49:45 0° 356° (N) 3,197 7.2 -9.0°
Reaches altitude 10° 22:52:11 10° 2° (N) 2,278 6.4 -9.6°
Maximum altitude 22:57:10 48° 77° (ENE) 985 4.2 -10.8°
Drops below altitude 10° 23:02:11 10° 151° (SSE) 2,303 6.2 -12.0°
Sets 23:04:39 0° 156° (SSE) 3,235 7.0 -12.6°
